TimeCDT,TemperatureF,Dew PointF,Humidity,Sea Level PressureIn,VisibilityMPH,Wind Direction,Wind SpeedMPH,Gust SpeedMPH,PrecipitationIn,Events,Conditions,WindDirDegrees,DateUTC
12:53 AM,75.9,72.0,87,30.06,10.0,East,4.6,-,N/A,,Clear,90,2013-08-04 05:53:00
1:53 AM,75.0,72.0,90,30.03,10.0,East,8.1,-,N/A,,Clear,90,2013-08-04 06:53:00
2:53 AM,73.9,71.1,91,30.04,10.0,East,4.6,-,N/A,,Clear,90,2013-08-04 07:53:00
3:53 AM,73.9,71.1,91,30.05,10.0,East,4.6,-,N/A,,Clear,80,2013-08-04 08:53:00
4:53 AM,73.9,71.1,91,30.04,10.0,East,5.8,-,N/A,,Partly Cloudy,90,2013-08-04 09:53:00
5:53 AM,73.9,71.1,91,30.04,10.0,ESE,5.8,-,N/A,,Mostly Cloudy,120,2013-08-04 10:53:00
6:53 AM,73.0,71.1,93,30.06,10.0,SSE,5.8,-,N/A,,Mostly Cloudy,150,2013-08-04 11:53:00
7:35 AM,73.4,71.6,94,30.11,10.0,Calm,Calm,-,N/A,Thunderstorm,Thunderstorm,0,2013-08-04 12:35:00
7:53 AM,73.9,71.1,91,30.09,5.0,NW,12.7,17.3,0.00,Rain-Thunderstorm,Light Thunderstorms and Rain,320,2013-08-04 12:53:00
8:14 AM,71.6,71.6,100,30.14,0.5,West,8.1,-,0.15,Fog-Rain-Thunderstorm,Light Thunderstorms and Rain,260,2013-08-04 13:14:00
8:33 AM,71.6,71.6,100,30.14,3.0,Calm,Calm,-,0.66,Rain-Thunderstorm,Light Thunderstorms and Rain,0,2013-08-04 13:33:00
8:53 AM,71.1,71.1,100,30.12,3.0,Calm,Calm,-,0.71,Rain-Thunderstorm,Light Thunderstorms and Rain,0,2013-08-04 13:53:00
9:53 AM,72.0,71.1,97,30.13,3.0,Calm,Calm,-,N/A,Rain-Thunderstorm,Thunderstorms and Rain,0,2013-08-04 14:53:00
10:38 AM,71.6,71.6,100,30.16,3.0,NE,3.5,-,0.09,Rain,Light Rain,40,2013-08-04 15:38:00
10:53 AM,72.0,71.1,97,30.14,3.0,Variable,3.5,-,0.13,Rain,Rain,0,2013-08-04 15:53:00
11:53 AM,73.0,72.0,96,30.13,6.0,East,5.8,-,0.04,Rain,Rain,90,2013-08-04 16:53:00
12:53 PM,73.0,71.1,93,30.10,6.0,East,8.1,-,0.08,Rain,Light Rain,90,2013-08-04 17:53:00
1:53 PM,73.0,71.1,93,30.09,10.0,East,9.2,-,0.04,Rain,Light Rain,100,2013-08-04 18:53:00
2:53 PM,73.9,72.0,93,30.07,10.0,East,8.1,-,0.00,Rain,Light Rain,100,2013-08-04 19:53:00
3:53 PM,73.9,72.0,93,30.06,10.0,ESE,6.9,-,0.00,,Mostly Cloudy,120,2013-08-04 20:53:00
4:31 PM,73.4,71.6,94,30.07,9.0,ESE,4.6,-,0.02,Rain,Light Rain,120,2013-08-04 21:31:00
4:53 PM,75.0,72.0,90,30.04,10.0,ESE,5.8,-,0.02,,Mostly Cloudy,120,2013-08-04 21:53:00
5:53 PM,75.0,71.1,87,30.02,10.0,ESE,5.8,-,0.00,,Mostly Cloudy,110,2013-08-04 22:53:00
6:53 PM,73.9,71.1,91,30.01,10.0,East,8.1,-,N/A,,Overcast,100,2013-08-04 23:53:00
7:53 PM,73.0,70.0,90,30.02,10.0,East,5.8,-,N/A,,Overcast,100,2013-08-05 00:53:00
8:53 PM,73.0,69.1,87,30.01,10.0,East,8.1,-,N/A,,Overcast,90,2013-08-05 01:53:00
9:53 PM,72.0,68.0,87,30.02,10.0,ESE,6.9,-,N/A,,Overcast,110,2013-08-05 02:53:00
10:53 PM,71.1,68.0,90,30.01,10.0,ESE,8.1,16.1,N/A,,Mostly Cloudy,110,2013-08-05 03:53:00
11:53 PM,72.0,68.0,87,30.01,10.0,SE,6.9,-,N/A,,Overcast,130,2013-08-05 04:53:00